User: anonymous   Login
Location: Caltech
(34.1382°N, 118.1253°W)
Time: 17:43:45
(UTC-07:00)
Language:

Cosmos 44 Rocket - Orbit

View from above orbital plane
View from above orbital plane
View from above satellite
View from above satellite

Ground track
Ground track

The orbit data is extracted from the following two-line orbital elements,

1   877U 64053B   17232.19296499 -.00000041 +00000-0 +16264-4 0  9993
2   877 065.0781 105.3514 0049487 084.1043 276.5694 14.59300436810869
Epoch (UTC): 20 August 2017 04:37:52
Eccentricity: 0.0049487
inclination: 65.0781°
perigee height: 660 km
apogee height: 730 km
right ascension of ascending node: 105.3514°
argument of perigee: 84.1043°
revolutions per day: 14.59300436
mean anomaly at epoch: 276.5694°
orbit number at epoch: 81086

The dashed part of the orbit path shows where the satellite is in the earth's shadow,  

DLR